Location: Devargunta
(16.7631°N, 80.9077°E)
Time: 16:46:01
(UTC+00:00)

Meteor 2-10 - Pass Details

Date: 19 January 2021
Orbit: 737 x 869 km, 81.2° (Epoch: 25 February)

Event Time Altitude Azimuth Distance (km) Brightness Sun altitude
Rises 23:29:02 0° 187° (S) 3,442 7.5 -23.6°
Reaches altitude 10° 23:31:28 10° 188° (S) 2,505 6.7 -23.0°
Maximum altitude 23:37:11 82° 275° (W) 873 4.1 -21.7°
Drops below altitude 10° 23:42:50 10° 3° (N) 2,472 6.5 -20.4°
Sets 23:45:14 0° 5° (N) 3,393 7.2 -19.9°
